WB2COY Weather Reports


time (UTC)temp
F
wind
direction
speed
knots
gust
knots
rain 1hr
in
rain 24hr
in
rain mn
in
humidity
%
barometer
mb
20260510193037 65 0.0 4.3 0.00 0.11 0.00 61 1012.6
20260510190016 67 225 0.9 6.1 0.00 0.16 0.00 50 1012.4
20260510183016 69 225 0.9 4.3 0.00 0.19 0.00 47 1012.1
20260510180016 71 0.0 1.7 0.00 0.22 0.00 51 1012.2
20260510173057 70 0.0 2.6 0.00 0.24 0.00 56 1012.2
20260510170016 70 248 0.9 3.5 0.00 0.26 0.00 56 1012.6
20260510163038 70 225 0.9 4.3 0.00 0.27 0.00 58 1012.3
20260510160016 68 248 0.9 3.5 0.00 0.29 0.00 62 1012.7
20260510153016 66 225 0.9 3.5 0.00 0.31 0.00 69 1012.7
20260510150017 64 0.0 2.6 0.00 0.31 0.00 70 1012.6
20260510143015 62 158 0.9 4.3 0.00 0.31 0.00 73 1012.6
20260510140016 60 158 0.9 3.5 0.00 0.31 0.00 74 1012.5
20260510133016 58 0.0 3.5 0.00 0.32 0.00 77 1012.7
20260510130036 57 0.0 3.5 0.00 0.32 0.00 81 1012.8
20260510123016 54 0.0 0.9 0.00 0.32 0.00 83 1012.6
20260510120016 52 0.0 0.0 0.00 0.32 0.00 83 1012.4
20260510113015 51 0.0 0.0 0.00 0.33 0.00 83 1012.2
20260510110036 50 0.0 0.9 0.00 0.33 0.00 83 1011.9
20260510103015 50 0.0 0.0 0.00 0.33 0.00 83 1011.5
20260510100055 50 0.0 0.9 0.00 0.33 0.00 83 1011.4
20260510093015 50 0.0 0.9 0.00 0.34 0.00 83 1011.3
20260510090016 50 0.0 0.0 0.00 0.35 0.00 83 1010.8
20260510083015 50 0.0 0.9 0.00 0.35 0.00 82 1011.1
20260510080015 50 0.0 0.9 0.00 0.36 0.00 82 1011.5
20260510073036 51 0.0 0.9 0.00 0.37 0.00 83 1011.9
20260510070017 51 0.0 0.9 0.00 0.39 0.00 83 1012.0
20260510063017 51 0.0 0.9 0.00 0.39 0.00 82 1011.5
20260510060018 51 0.0 0.0 0.00 0.39 0.00 82 1011.4
20260510053016 51 0.0 0.0 0.00 0.39 0.00 82 1011.5
20260510050038 51 0.0 0.0 0.00 0.39 0.00 82 1011.1
20260510043040 51 0.0 0.0 0.00 0.39 0.00 82 1011.1
20260510040017 51 0.0 0.0 0.00 0.39 0.39 82 1011.0
20260510033015 51 0.0 0.9 0.00 0.39 0.39 82 1010.9
20260510030015 51 0.0 0.9 0.00 0.39 0.39 82 1011.2
20260510023015 50 0.0 0.9 0.00 0.39 0.39 79 1011.0
20260510020017 51 0.0 0.0 0.00 0.39 0.39 79 1010.8
20260510013017 51 0.0 0.9 0.00 0.39 0.39 77 1010.9
20260510010018 52 0.0 1.7 0.00 0.39 0.39 77 1010.4
20260510003017 53 0.0 2.6 0.00 0.39 0.39 77 1010.3
20260510000037 53 0.0 1.7 0.00 0.39 0.39 75 1009.7
20260509233017 55 0.0 0.9 0.00 0.39 0.39 75 1009.7
20260509230016 55 0.0 1.7 0.00 0.39 0.39 76 1009.7
20260509223017 55 0.0 1.7 0.00 0.39 0.39 77 1009.5
20260509220038 55 0.0 2.6 0.00 0.39 0.39 77 1009.9
20260509213037 55 0.0 1.7 0.02 0.39 0.39 77 1010.1
20260509210017 54 0.0 0.9 0.06 0.39 0.39 77 1010.0
20260509203016 54 0.0 3.5 0.09 0.37 0.37 73 1010.7
20260509200017 54 0.0 2.6 0.10 0.33 0.33 72 1010.9